TimeCDT,TemperatureF,Dew PointF,Humidity,Sea Level PressureIn,VisibilityMPH,Wind Direction,Wind SpeedMPH,Gust SpeedMPH,PrecipitationIn,Events,Conditions,WindDirDegrees,DateUTC
12:53 AM,55.9,42.1,60,29.94,10.0,West,18.4,26.5,N/A,,Overcast,280,2013-10-05 05:53:00
1:53 AM,54.0,39.9,59,29.92,10.0,NW,11.5,23.0,0.00,Rain,Light Rain,310,2013-10-05 06:53:00
2:53 AM,48.9,42.1,77,29.94,10.0,WNW,13.8,-,0.01,Rain,Light Rain,290,2013-10-05 07:53:00
3:53 AM,48.0,39.0,71,29.94,10.0,WNW,10.4,-,0.00,,Clear,290,2013-10-05 08:53:00
4:53 AM,46.0,37.0,71,29.96,10.0,West,8.1,-,N/A,,Clear,280,2013-10-05 09:53:00
5:53 AM,44.1,35.1,71,29.96,10.0,West,8.1,-,N/A,,Clear,270,2013-10-05 10:53:00
6:53 AM,42.1,35.1,76,29.97,10.0,WSW,6.9,-,N/A,,Clear,250,2013-10-05 11:53:00
7:53 AM,43.0,36.0,76,29.96,10.0,WSW,5.8,-,N/A,,Clear,240,2013-10-05 12:53:00
8:53 AM,46.9,37.0,68,29.96,10.0,West,6.9,-,N/A,,Partly Cloudy,270,2013-10-05 13:53:00
9:53 AM,48.9,34.0,56,30.00,10.0,West,13.8,-,N/A,,Overcast,280,2013-10-05 14:53:00
10:53 AM,51.1,35.1,54,29.99,10.0,WSW,11.5,-,N/A,,Overcast,250,2013-10-05 15:53:00
11:53 AM,53.1,34.0,48,29.98,10.0,West,12.7,24.2,N/A,,Mostly Cloudy,270,2013-10-05 16:53:00
12:53 PM,54.0,35.1,49,29.98,10.0,WSW,13.8,20.7,N/A,,Overcast,250,2013-10-05 17:53:00
1:53 PM,54.0,35.1,49,29.96,10.0,WSW,13.8,21.9,N/A,,Overcast,250,2013-10-05 18:53:00
2:53 PM,57.9,35.1,42,29.92,10.0,WSW,20.7,25.3,N/A,,Clear,240,2013-10-05 19:53:00
3:53 PM,59.0,34.0,39,29.89,10.0,WSW,20.7,28.8,N/A,,Scattered Clouds,250,2013-10-05 20:53:00
4:53 PM,57.0,34.0,42,29.88,10.0,West,18.4,26.5,N/A,,Mostly Cloudy,260,2013-10-05 21:53:00
5:53 PM,55.0,33.1,43,29.89,10.0,West,15.0,-,N/A,,Overcast,270,2013-10-05 22:53:00
6:53 PM,52.0,33.1,49,29.90,10.0,West,10.4,-,N/A,,Mostly Cloudy,260,2013-10-05 23:53:00
7:53 PM,50.0,33.1,52,29.91,10.0,West,11.5,-,N/A,,Scattered Clouds,270,2013-10-06 00:53:00
8:53 PM,48.0,34.0,58,29.91,10.0,West,8.1,-,N/A,,Mostly Cloudy,270,2013-10-06 01:53:00
9:53 PM,48.0,34.0,58,29.91,10.0,West,12.7,21.9,N/A,,Mostly Cloudy,260,2013-10-06 02:53:00
10:53 PM,46.0,33.1,61,29.89,10.0,West,13.8,19.6,N/A,,Clear,270,2013-10-06 03:53:00
11:53 PM,45.0,33.1,63,29.88,10.0,West,13.8,-,N/A,,Clear,260,2013-10-06 04:53:00